Date String (YYYY-MM-DD hh:mm:ss) UTC,Instrument flags,Ambient pressure (hPa),Sample flow (lpm),Bypass flow (lpm),Sample temperature (°C),Ambient temperature (°C),ASC tube jacket temperature (°C),LED temperature (°C),Box temperature (°C),Sample RH (%),Span deviation,Mass concentration (μg/m³),Mass concentration (μg/m³),Mass concentration (μg/m³)
DateTimeUTC,F1_M11,P_M11,Q1_M11,Q2_M11,T1_M11,T2_M11,T3_M11,T4_M11,T5_M11,U1_M11,ZSPAN_M11,X2_M11,X0_M11,X1_M11
2022-12-05 01:00:00,,0819.1,4.98,0.00,27.3,25.8,00.0,36.2,29.1,12.0,-001.6,0010.93,0019.14,0009.89
2022-12-05 01:01:00,,0819.1,5.01,0.00,27.3,25.8,00.0,36.2,29.0,12.1,-001.9,0010.85,0019.12,0009.85
2022-12-05 01:02:00,,0819.1,5.01,0.00,27.3,25.8,00.0,36.2,29.0,12.2,-002.0,0010.79,0019.49,0009.81
2022-12-05 01:03:00,,0819.1,4.99,0.00,27.3,25.8,00.0,36.2,29.0,12.1,-002.2,0010.73,0020.15,0009.77
2022-12-05 01:04:00,,0819.0,4.99,0.00,27.3,25.8,00.0,36.2,29.1,12.1,-002.1,0010.70,0020.35,0009.73
2022-12-05 01:05:00,,0819.1,5.01,0.00,27.3,25.8,00.0,36.2,29.1,12.0,-002.0,0010.62,0020.08,0009.69
2022-12-05 01:06:00,,0819.1,4.99,0.00,27.3,25.8,00.0,36.2,29.1,12.0,-002.1,0010.59,0020.00,0009.67
2022-12-05 01:07:00,,0819.2,4.99,0.00,27.3,25.8,00.0,36.2,29.1,12.0,-001.6,0010.57,0021.63,0009.66
2022-12-05 01:08:00,,0819.1,5.00,0.00,27.3,25.8,00.0,36.2,29.1,12.0,-000.6,0010.55,0022.14,0009.65
2022-12-05 01:09:00,,0819.2,5.00,0.00,27.3,25.8,00.0,36.2,29.1,12.0,-000.3,0010.55,0022.26,0009.65
2022-12-05 01:10:00,,0819.1,4.99,0.00,27.3,25.8,00.0,36.2,29.1,12.0,0000.5,0010.57,0022.67,0009.63
2022-12-05 01:11:00,,0819.0,5.00,0.00,27.2,25.8,00.0,36.2,29.1,12.1,0001.2,0010.55,0022.06,0009.61
2022-12-05 01:12:00,,0819.0,5.01,0.00,27.2,25.7,00.0,36.2,29.0,12.1,0001.5,0010.58,0021.29,0009.63
2022-12-05 01:13:00,,0818.9,5.00,0.00,27.2,25.7,00.0,36.2,29.1,12.0,0001.9,0010.62,0020.96,0009.62
2022-12-05 01:14:00,,0819.0,5.00,0.00,27.2,25.7,00.0,36.2,29.0,12.0,0002.5,0010.62,0020.40,0009.60
2022-12-05 01:15:00,,0818.9,5.00,0.00,27.2,25.8,00.0,36.2,29.1,12.0,0002.4,0010.58,0019.44,0009.59
2022-12-05 01:16:00,,0818.9,4.98,0.00,27.2,25.8,00.0,36.2,29.1,11.9,0002.1,0010.54,0018.52,0009.56
2022-12-05 01:17:00,,0818.8,5.01,0.00,27.2,25.8,00.0,36.2,29.1,11.9,0001.9,0010.45,0018.35,0009.48
2022-12-05 01:18:00,,0818.8,5.00,0.00,27.2,25.8,00.0,36.2,29.0,11.9,0002.2,0010.41,0016.74,0009.43
2022-12-05 01:19:00,,0818.7,5.01,0.00,27.2,25.8,00.0,36.2,29.0,11.9,0002.3,0010.38,0015.94,0009.38
2022-12-05 01:20:00,,0818.7,5.00,0.00,27.2,25.8,00.0,36.2,29.0,11.9,0002.6,0010.32,0015.80,0009.31
2022-12-05 01:21:00,,0818.6,5.00,0.00,27.1,25.6,00.0,36.1,28.9,11.9,0002.3,0010.21,0015.48,0009.23
2022-12-05 01:22:00,,0818.8,4.99,0.00,27.1,25.5,00.0,36.1,28.9,11.9,0002.1,0010.13,0014.83,0009.17
2022-12-05 01:23:00,,0818.9,5.01,0.00,27.1,25.4,00.0,36.1,28.9,12.0,0002.2,0010.01,0015.07,0009.07
2022-12-05 01:24:00,,0818.9,5.01,0.00,27.1,25.4,00.0,36.1,28.9,12.1,0001.6,0009.90,0015.80,0009.01
2022-12-05 01:25:00,,0818.9,5.01,0.00,27.1,25.4,00.0,36.1,28.9,12.2,0001.3,0009.84,0015.92,0008.96
2022-12-05 01:26:00,,0818.9,5.00,0.00,27.0,25.4,00.0,36.1,28.8,12.2,0001.2,0009.81,0015.80,0008.93
2022-12-05 01:27:00,,0818.9,4.98,0.00,27.0,25.3,00.0,36.1,28.8,12.2,0001.7,0009.83,0015.76,0008.95
2022-12-05 01:28:00,,0818.8,5.01,0.00,27.0,25.4,00.0,36.0,28.8,12.1,0002.1,0009.90,0015.66,0009.02
2022-12-05 01:29:00,,0818.7,5.00,0.00,27.0,25.4,00.0,36.0,28.8,12.1,0002.3,0009.95,0016.33,0009.06
2022-12-05 01:30:00,,0818.4,5.00,0.00,27.0,25.4,00.0,36.0,28.8,12.1,0002.3,0009.97,0016.84,0009.09
2022-12-05 01:31:00,,0818.4,4.99,0.00,27.0,25.3,00.0,36.0,28.8,12.1,0002.3,0009.97,0017.13,0009.12
2022-12-05 01:32:00,,0818.6,5.01,0.00,26.9,25.2,00.0,36.0,28.8,12.1,0001.8,0010.02,0018.74,0009.18
2022-12-05 01:33:00,,0818.8,5.00,0.00,26.9,25.2,00.0,36.0,28.7,12.2,0001.7,0010.10,0019.01,0009.24
2022-12-05 01:34:00,,0818.8,4.99,0.00,26.9,25.3,00.0,36.0,28.7,12.2,0001.7,0010.21,0018.74,0009.32
2022-12-05 01:35:00,,0818.9,5.00,0.00,26.9,25.3,00.0,36.0,28.7,12.2,0001.9,0010.29,0018.05,0009.37
2022-12-05 01:36:00,,0818.9,5.01,0.00,26.9,25.4,00.0,35.9,28.7,12.2,0002.9,0010.31,0018.18,0009.41
2022-12-05 01:37:00,,0818.9,4.98,0.00,26.9,25.4,00.0,35.9,28.7,12.2,0003.4,0010.32,0018.73,0009.44
2022-12-05 01:38:00,,0819.0,5.00,0.00,26.9,25.4,00.0,35.9,28.7,12.2,0003.5,0010.32,0019.15,0009.44
2022-12-05 01:39:00,,0819.0,5.02,0.00,26.9,25.5,00.0,35.9,28.7,12.2,0003.1,0010.34,0019.52,0009.45
2022-12-05 01:40:00,,0818.9,4.99,0.00,26.9,25.5,00.0,35.9,28.8,12.1,0002.6,0010.37,0019.42,0009.45
2022-12-05 01:41:00,,0818.8,5.01,0.00,26.9,25.5,00.0,35.9,28.8,12.1,0002.4,0010.35,0019.37,0009.44
2022-12-05 01:42:00,,0818.9,5.00,0.00,26.9,25.5,00.0,35.9,28.8,12.1,0001.9,0010.36,0019.08,0009.44
2022-12-05 01:43:00,,0818.9,4.98,0.00,26.9,25.5,00.0,35.9,28.7,12.1,0002.7,0010.35,0017.38,0009.43
2022-12-05 01:44:00,,0818.8,5.00,0.00,26.9,25.4,00.0,35.9,28.7,12.1,0003.4,0010.30,0017.20,0009.40
2022-12-05 01:45:00,,0818.8,5.00,0.00,26.9,25.3,00.0,35.9,28.7,12.1,0003.5,0010.29,0017.40,0009.38
2022-12-05 01:46:00,,0818.8,4.99,0.00,26.9,25.2,00.0,35.9,28.7,12.2,0003.8,0010.25,0017.34,0009.36
2022-12-05 01:47:00,,0818.8,5.00,0.00,26.8,25.1,00.0,35.9,28.6,12.2,0003.4,0010.19,0016.83,0009.36
2022-12-05 01:48:00,,0818.7,4.99,0.00,26.8,25.0,00.0,35.9,28.6,12.2,0002.7,0010.17,0016.27,0009.34
2022-12-05 01:49:00,,0818.7,5.00,0.00,26.8,25.0,00.0,35.8,28.5,12.2,0002.5,0010.16,0015.71,0009.33
2022-12-05 01:50:00,,0818.7,5.00,0.00,26.7,24.9,00.0,35.8,28.5,12.2,0002.5,0010.09,0015.39,0009.30
2022-12-05 01:51:00,,0818.9,5.00,0.00,26.7,24.9,00.0,35.8,28.5,12.3,0001.9,0010.01,0015.28,0009.25
2022-12-05 01:52:00,,0818.9,5.01,0.00,26.7,24.8,00.0,35.8,28.5,12.3,0001.2,0010.01,0014.95,0009.22
2022-12-05 01:53:00,,0818.9,5.00,0.00,26.7,24.8,00.0,35.8,28.5,12.3,0001.4,0010.03,0015.10,0009.21
2022-12-05 01:54:00,,0818.8,4.99,0.00,26.6,24.8,00.0,35.7,28.4,12.3,0000.3,0010.07,0015.18,0009.22
2022-12-05 01:55:00,,0818.7,4.99,0.00,26.6,24.8,00.0,35.7,28.4,12.4,0000.5,0010.08,0015.14,0009.23
2022-12-05 01:56:00,,0818.8,5.00,0.00,26.6,24.8,00.0,35.7,28.4,12.4,0000.7,0010.12,0015.05,0009.26
2022-12-05 01:57:00,,0818.7,4.99,0.00,26.6,24.8,00.0,35.7,28.4,12.4,0000.8,0010.15,0015.30,0009.26
2022-12-05 01:58:00,,0818.7,5.00,0.00,26.6,24.8,00.0,35.6,28.4,12.4,0000.3,0010.21,0015.57,0009.24
2022-12-05 01:59:00,,0818.7,5.00,0.00,26.6,24.9,00.0,35.6,28.4,12.5,0000.0,0010.26,0015.72,0009.24
